Location: Aragoneses
(41.0275°N, 4.3847°W)
Time: 20:50:19
(UTC+00:00)

SKYMED 2 - Pass Details

Date: 11 December 2025
Orbit: 622 x 623 km, 97.9° (Epoch: 12 January)

Event Time Altitude Azimuth Distance (km) Brightness Sun altitude
Exits shadow 18:35:21 12° 8° (N) 1,844 5.8 -19.3°
Maximum altitude 18:39:18 73° 284° (WNW) 655 3.7 -20.0°
Drops below altitude 10° 18:43:36 10° 201° (SSW) 1,984 6.6 -20.8°
Sets 18:45:47 0° 199° (SSW) 2,885 7.4 -21.2°
